This is the latest recevied weather packets stored in our database for station/object N5JXS. If no packets are shown the sender has not sent any weather packets the latest 10 day(s).
| Time | Temp. | Humidity | Pressure | Rain* | Wind** | Luminosity | Snow |
|---|---|---|---|---|---|---|---|
| 1788512492 | 17.22° C | 40% | 1022.6 hPa | 0 mm | - | 0 W/m² | - |
| 1788512192 | 17.22° C | 45% | 1022.4 hPa | 0 mm | - | 0 W/m² | - |
| 1788511886 | 17.22° C | 45% | 1022.2 hPa | 0 mm | - | 0 W/m² | - |
| 1788511582 | 17.22° C | 47% | 1022.6 hPa | 0 mm | - | 0 W/m² | - |
| 1788511278 | 17.22° C | 48% | 1022.5 hPa | 0 mm | - | 0 W/m² | - |
| 1788510974 | 16.11° C | 50% | 1022.5 hPa | 0 mm | - | 0 W/m² | - |
| 1788510669 | 16.11° C | 56% | 1022.5 hPa | 0 mm | - | 0 W/m² | - |
| 1788510364 | 16.11° C | 56% | 1022.6 hPa | 0 mm | - | 0 W/m² | - |
| 1788510075 | 16.11° C | 56% | 1022.7 hPa | 0 mm | - | 0 W/m² | - |
| 1788509755 | 16.11° C | 56% | 1022.4 hPa | 0 mm | - | 0 W/m² | - |
| 1788509450 | 16.11° C | 56% | 1022.7 hPa | 0 mm | - | 0 W/m² | - |
| 1788509146 | 16.11° C | 55% | 1022.6 hPa | 0 mm | - | 0 W/m² | - |
| 1788508842 | 16.67° C | 55% | 1022.9 hPa | 0 mm | - | 0 W/m² | - |
| 1788508538 | 16.67° C | 55% | 1022.6 hPa | 0 mm | - | 0 W/m² | - |
| 1788508232 | 16.67° C | 55% | 1022.5 hPa | 0 mm | - | 0 W/m² | - |
| 1788507932 | 16.67° C | 55% | 1022.9 hPa | 0 mm | - | 0 W/m² | - |
| 1788507627 | 16.11° C | 55% | 1022.6 hPa | 0 mm | - | 0 W/m² | - |
| 1788507321 | 16.11° C | 55% | 1022.5 hPa | 0 mm | - | 0 W/m² | - |
| 1788507018 | 16.11° C | 55% | 1022.7 hPa | 0 mm | - | 0 W/m² | - |
| 1788506713 | 16.67° C | 54% | 1022.6 hPa | 0 mm | - | 0 W/m² | - |
| 1788506408 | 16.67° C | 54% | 1022.6 hPa | 0 mm | - | 0 W/m² | - |
| 1788506103 | 16.67° C | 54% | 1022.4 hPa | 0 mm | - | 0 W/m² | - |
| 1788505798 | 16.67° C | 54% | 1023 hPa | 0 mm | - | 0 W/m² | - |
| 1788505497 | 16.67° C | 54% | 1022.6 hPa | 0 mm | - | 0 W/m² | - |
| 1788505191 | 16.67° C | 53% | 1022.9 hPa | 0 mm | - | 0 W/m² | - |
* Rain latest hour (hover to see other rain measurements)
** Current wind speed in m/s (hover to see current wind gust speed)